Powrót do katalogu

FENGYUN 1C DEB

AktywnySSO
NORAD 30077·DEBRIS·🇨🇳 China

Wystrzelony May 10, 1999 z Taiyuan Satellite Launch Center

Loading…

Następne Przeloty (najbliższe 24 godziny)

TLE

ŚwieżeSource: Space-Track

Epoka: Sep 14, 2026, 07:27 UTC

1 30077U 99025QE  26257.31085716 -.00000106  00000-0 -37798-4 0  9992
2 30077  98.7488 269.2150 0020930 205.6288 222.2093 14.07113807  9879

Śledź FENGYUN 1C DEB w czasie rzeczywistym z AllMySat

Download on the App Store